CAPE
6 6 6 3 5 6 4 3 4 4 3 2 2 2 4 4 2 2 3 2 3 2 2 2 3 4 4 3 3 4 3 0 0 0 0 0 0 8 0 36 682 2230 1616 993 723 670 507 567 575 364 632 650 945 908 994 762 677 268 184 238 192 349 380 440 670 620 714 861 946 965 836 772 543 1146 1208 1663 974 950 1192 1544 1275 693 1007 1596 1003 732 595 744
9 6 6 4 4 6 4 4 4 4 3 3 2 2 4 4 3 2 3 2 2 3 4 2 2 3 4 2 2 3 1 0 0 0 0 0 0 0 0 40 1397 2333 1367 987 628 605 614 657 660 605 780 1019 1104 1175 659 591 392 709 742 694 522 540 540 875 949 793 824 875 1116 899 836 630 913 1112 1553 1317 984 1105 1224 1292 1126 1334 1563 1337 889 604 538 604
6 8 8 5 4 5 4 2 3 4 4 3 2 1 3 4 2 2 3 2 2 2 3 2 2 4 3 4 2 2 1 0 0 0 0 0 0 0 0 458 1803 2405 1175 841 656 580 534 745 842 755 925 1282 997 1229 771 1190 508 794 671 491 464 1000 864 964 992 837 869 854 926 970 970 1240 905 1167 1572 1410 1255 1289 1428 1022 1262 1352 1379 1198 957 455 329 387
7 8 4 5 4 4 6 2 4 4 4 3 3 2 3 4 2 3 2 2 1 2 3 2 3 2 4 1 1 0 0 0 0 0 0 0 0 2 56 886 2378 2368 1100 765 558 466 350 679 897 1004 1087 1313 1426 1462 1102 1122 541 864 766 556 550 668 631 706 831 897 936 836 744 910 862 890 1343 1748 1423 1527 1020 1356 1510 1088 1083 943 1199 968 857 692 558 396
4 6 6 7 4 4 4 2 4 4 4 4 2 3 2 3 3 2 2 2 2 2 3 2 2 2 2 2 0 0 0 0 0 0 0 0 0 8 654 1474 2480 1594 1031 650 500 452 646 856 907 1400 1385 1398 1563 1466 1348 1391 1092 1147 1057 905 1120 897 645 811 1052 1185 1085 826 643 886 804 960 1204 1324 1602 811 1142 1199 1264 1115 1294 1332 1126 954 882 766 644 613
7 6 6 4 4 2 3 2 3 4 4 4 2 2 3 2 0 2 2 2 2 2 2 2 2 2 3 2 0 0 0 0 0 230 223 52 1 31 1148 2288 2526 1234 982 722 661 686 658 795 1088 1452 1349 1539 1402 1216 1212 1294 1468 1076 891 1214 1107 1174 864 1024 1115 1038 856 780 914 846 792 1142 1011 1110 1513 1038 1382 1191 1202 1216 1617 1552 1235 1041 902 782 703 602
5 6 4 5 4 3 2 2 3 3 4 3 2 2 3 1 2 2 1 3 2 4 2 2 1 1 0 0 0 0 0 0 1 316 855 139 0 524 1662 2656 2454 1351 955 673 643 488 772 942 1335 1636 1752 1258 1280 1318 1339 1519 1573 1404 1246 1038 1110 1551 1073 975 812 826 671 331 384 407 1102 608 1009 813 868 1220 1144 1078 1176 1208 1662 1602 1174 832 1071 916 805 672
8 6 4 4 4 4 2 2 3 3 1 2 3 3 1 1 2 2 1 2 3 4 3 2 3 1 0 0 0 0 0 0 0 398 708 74 0 1279 2266 1934 1774 1272 770 473 496 289 825 1220 1468 1295 1551 1513 1135 1538 1517 1622 1544 1607 1113 1366 1628 1052 1343 1077 572 354 499 254 292 417 574 782 531 891 1061 961 602 565 760 1097 1454 1598 1162 1110 1136 1108 1064 792
5 5 5 5 3 3 4 2 2 2 1 2 2 2 2 1 2 2 0 1 4 2 2 2 2 1 0 0 0 0 0 0 75 99 156 0 31 1378 1959 1634 1460 1096 450 268 264 299 787 1297 1448 1392 1872 1446 1203 1795 1518 1532 1050 1349 1201 1091 1424 1430 1411 1013 807 740 207 251 686 396 746 541 765 899 370 941 1034 1018 608 802 1220 1263 1068 1308 804 974 1062 937
5 4 6 5 2 3 4 2 2 2 2 2 2 2 2 2 2 2 2 1 2 3 2 2 0 2 0 0 0 0 0 4 82 28 0 0 354 1544 1528 1554 1368 915 282 280 284 285 486 1355 1414 1158 1336 1438 1047 1546 1114 1418 1208 820 1162 1539 1486 1466 1620 1178 879 986 889 661 503 173 718 1060 977 764 675 682 604 916 802 682 919 893 1010 1150 782 840 523 677
4 3 4 4 2 3 3 3 1 2 2 2 2 1 1 2 2 2 3 3 1 4 3 1 2 0 0 0 0 0 0 9 85 0 0 228 1143 1524 1308 1278 1085 610 265 234 234 234 356 1174 1068 1292 1087 1634 1293 1565 1466 1185 791 1012 1288 1295 1395 1713 1817 1270 996 1238 1262 486 470 365 686 837 416 887 952 712 837 853 923 796 739 691 736 842 806 869 179 166
3 4 5 2 2 3 2 1 2 2 3 2 2 1 2 2 2 2 0 2 3 2 1 1 0 0 0 0 0 0 0 0 83 0 0 974 1284 1256 1123 1085 777 394 274 286 230 174 568 1281 1122 1390 1576 1260 2073 1445 1313 742 1016 1159 1208 1504 1895 1630 1667 1483 1092 1150 1108 266 666 58 602 976 724 1555 622 806 1078 1261 1193 801 667 562 595 629 298 222 402 88
3 4 3 2 2 2 1 1 4 2 2 2 2 2 3 2 0 0 1 2 1 0 0 0 1 0 0 0 0 0 0 0 0 0 316 972 1207 1270 902 755 510 290 212 254 278 232 866 1447 1301 1762 1903 1834 1667 1966 1268 1057 1254 1294 1428 1224 939 1157 846 1289 1676 1388 1217 844 769 753 98 60 755 1042 474 1078 1226 1162 956 760 620 640 522 678 280 184 478 591
3 6 2 3 2 2 1 2 2 3 3 3 3 2 1 0 0 0 2 1 0 0 0 0 0 0 0 0 0 0 0 3 0 13 552 887 1235 800 306 400 361 235 300 230 288 389 747 1259 1561 1847 1490 1712 1942 1276 1451 1333 1124 1458 694 420 358 410 380 1419 1742 1241 1084 943 1446 1448 822 670 1025 1203 1100 1108 1222 1213 1150 738 774 596 655 814 470 410 571 842
4 3 4 4 3 2 2 2 3 2 3 3 1 1 0 0 0 0 1 1 0 2 0 0 0 0 0 0 0 0 88 172 117 68 535 1178 746 235 262 255 349 406 654 662 944 800 552 1187 1679 1820 1920 1786 1526 1424 1118 1385 1312 918 880 224 448 423 792 1559 1408 1246 980 714 1266 1439 632 477 903 1325 1341 1243 1366 1411 1474 888 645 622 674 698 711 505 450 509
6 6 6 3 4 2 3 2 2 3 3 2 1 0 0 0 0 1 0 0 1 1 0 0 0 0 0 0 683 62 40 420 288 386 1112 991 286 111 234 489 602 1003 714 775 789 1069 1101 1080 1614 1801 1456 1311 1408 1484 1503 1190 1308 662 422 60 339 296 696 1636 1127 1257 1044 991 1278 1278 804 271 330 1146 1193 1237 1392 1487 1711 1371 649 640 601 639 640 663 406 380
4 7 8 8 4 3 3 4 3 4 2 2 0 0 0 0 2 2 0 0 0 0 0 0 0 0 0 0 0 134 2 18 532 581 737 994 249 222 358 586 810 810 745 652 416 452 532 1020 1270 1152 984 1048 1177 1264 596 309 62 444 388 453 331 237 272 414 1146 1127 1042 1025 454 716 556 416 642 644 1162 1235 1263 1366 1536 1831 1078 636 574 610 660 645 529 514
7 7 7 7 6 4 2 3 4 3 2 1 0 0 0 0 0 0 0 0 0 0 0 0 0 0 0 0 0 0 6 36 629 908 737 735 358 344 594 690 716 870 716 753 781 774 887 918 1122 1341 1382 1440 1264 1266 1154 752 532 617 644 589 343 360 212 226 363 1099 984 1004 732 635 246 419 574 578 920 1159 1523 1724 1650 1681 1288 689 576 664 593 586 584 616
8 7 8 9 9 5 2 3 3 4 2 2 0 0 0 0 0 0 0 0 0 0 0 0 0 0 0 0 0 0 6 12 537 350 676 454 474 236 370 580 662 894 616 616 1122 757 1010 926 1271 1070 1192 1059 1193 942 1016 753 624 649 529 580 477 339 235 76 462 866 637 1155 870 794 490 315 628 876 987 1165 1641 1998 1902 1568 1344 742 536 755 562 491 580 582
4 6 9 11 11 8 2 4 4 3 3 0 0 0 0 0 0 0 0 0 0 0 0 0 0 0 0 0 0 0 1 83 188 144 193 161 195 242 292 342 474 266 294 212 738 590 894 945 990 1113 358 772 1030 796 735 698 662 590 675 563 444 223 230 246 464 762 488 840 752 751 690 276 210 680 777 1185 1448 1678 1736 1518 1315 900 616 690 584 494 649 664
4 9 10 8 12 10 5 6 4 2 3 0 0 0 0 0 0 0 0 0 0 0 0 0 0 0 0 0 0 34 8 18 30 57 35 42 105 123 313 342 368 304 141 42 80 106 138 409 566 605 772 832 703 834 766 735 686 573 567 613 225 272 94 316 763 867 542 706 766 588 740 654 648 456 591 790 1037 1448 1608 1591 1406 1100 760 646 698 534 569 679
6 8 11 10 10 12 8 5 1 2 1 0 0 0 0 0 0 0 0 0 0 0 0 0 0 0 0 0 0 0 0 0 17 2 5 0 4 2 17 90 379 326 313 150 2 336 343 449 356 594 774 764 665 644 700 663 623 576 524 408 196 31 96 1051 1313 1107 758 752 1041 836 786 791 662 569 733 729 1001 1267 1436 1592 1474 1172 945 770 673 555 502 416
4 4 9 12 10 11 8 4 1 0 0 0 0 0 0 0 0 0 0 0 0 0 0 0 0 0 0 0 0 0 0 0 21 0 0 0 0 0 0 0 225 78 7 249 96 324 367 475 513 499 723 739 650 616 642 583 538 615 458 16 44 34 78 47 1527 1278 1274 725 753 949 1012 950 746 625 532 1004 1120 1144 1271 1480 1559 1356 1003 864 712 572 375 289
2 5 9 8 11 7 7 0 0 0 0 0 0 0 0 0 0 0 0 0 0 0 0 0 0 0 0 0 0 0 0 0 1 2 0 0 0 0 0 0 0 0 65 22 155 293 250 529 437 682 705 672 616 651 558 652 651 393 192 128 37 13 14 146 968 1492 1220 746 1193 1342 1242 970 903 950 998 1160 1104 1039 1100 1288 1451 1512 1204 812 642 552 368 258
6 4 6 8 5 12 0 0 0 0 0 0 0 0 0 0 0 0 0 0 0 0 0 0 0 0 0 0 0 0 0 0 0 25 0 0 0 0 0 0 0 1 117 174 230 345 334 370 342 522 607 551 515 558 516 553 528 268 154 0 0 0 6 724 963 1304 1218 1385 903 1144 842 597 925 790 793 874 1041 1084 1162 1229 1443 1558 1420 982 654 600 453 336
4 9 6 7 12 3 0 0 0 0 0 0 0 0 0 0 0 0 0 0 0 0 0 0 0 0 0 0 0 0 0 0 0 2 0 0 0 0 0 0 0 66 58 144 281 323 250 289 340 500 530 447 459 482 431 103 301 14 34 0 0 0 72 524 1070 985 1146 945 1134 726 1219 0 552 816 759 828 1238 1202 1117 1123 1276 1537 1622 1421 1131 782 575 398
8 5 12 6 6 4 0 0 0 0 0 0 0 0 0 0 0 0 0 0 0 0 0 0 0 0 0 0 0 0 0 0 0 0 0 0 0 0 0 0 0 0 50 186 274 315 276 349 451 452 384 376 432 409 113 154 216 54 30 0 7 88 200 475 674 642 677 298 680 862 776 729 292 240 423 612 1221 1395 1300 1251 1260 1300 1607 1486 1431 1072 832 540
8 11 10 14 3 11 0 0 0 0 0 0 0 0 0 0 0 0 0 0 0 0 0 0 0 0 0 0 0 0 0 0 0 0 0 0 0 0 0 0 0 0 49 140 135 95 212 284 280 256 284 322 448 192 114 125 66 68 12 4 210 210 248 363 514 773 618 407 1130 1189 838 871 498 756 601 813 1118 1241 1272 1472 1360 1338 1540 1615 1561 1352 1096 794
9 11 11 11 13 0 2 0 0 0 0 0 0 0 0 0 0 0 0 0 0 0 0 0 0 0 0 0 0 0 0 0 0 0 0 0 0 0 0 0 0 0 4 24 12 26 14 36 2 0 77 212 126 50 21 22 18 106 0 0 68 344 396 348 426 468 686 632 1064 1087 856 604 302 1003 794 1087 672 622 1136 1524 1592 1292 1467 1598 1548 1503 1278 1116
6 6 8 8 8 3 2 0 0 0 0 0 0 0 0 0 0 0 0 0 0 0 0 0 0 0 0 0 0 0 0 0 0 0 0 0 0 0 0 0 0 0 12 14 0 0 4 18 7 1 11 9 4 2 0 40 0 0 0 0 0 126 382 488 565 522 640 1138 798 183 666 598 478 238 464 1056 748 325 472 337 632 1400 1332 1543 1585 1509 1432 1332
1 3 3 5 0 0 0 0 0 0 0 0 0 0 0 0 0 0 0 0 0 0 0 0 0 0 0 0 0 0 0 0 0 0 0 0 0 0 0 0 0 0 2 21 16 1 0 1 0 0 0 0 0 128 11 44 18 0 0 0 0 43 500 842 794 981 946 727 251 331 351 586 867 70 176 322 196 230 274 616 1058 1313 1339 1470 1597 1478 1431 1417
0 0 0 1 0 0 0 0 0 0 0 0 0 0 0 0 0 0 0 0 0 0 0 0 0 0 0 0 0 0 0 0 0 0 0 0 0 0 0 0 0 0 0 5 12 0 0 0 0 0 0 0 0 8 78 49 22 0 0 7 7 19 299 465 999 1042 754 318 264 142 334 692 234 236 131 252 286 146 226 392 810 1134 1252 1361 1487 1524 1513 1465
0 0 0 0 0 0 0 0 0 0 0 0 0 0 0 0 0 0 0 0 0 0 0 0 0 0 0 0 0 0 0 0 0 0 0 0 0 0 0 0 0 0 0 0 0 0 0 0 0 0 0 0 0 0 95 69 40 22 32 47 21 16 458 395 536 107 248 220 288 202 508 490 138 213 164 178 288 404 330 419 749 1037 1206 1326 1403 1568 1516 1557
0 0 0 0 0 0 0 0 0 0 0 0 0 0 0 0 0 0 0 0 0 0 0 0 0 0 0 0 0 0 0 0 0 0 0 0 0 0 0 0 0 0 0 0 0 0 0 0 0 0 0 0 0 0 2 16 118 89 10 6 0 46 32 175 432 501 310 66 103 479 640 383 112 145 106 70 106 271 362 413 638 992 1110 1384 1322 1414 1552 1591
0 0 0 0 0 0 0 0 0 0 0 0 0 0 0 0 0 0 0 0 0 0 0 0 0 0 0 0 0 0 0 0 0 0 0 0 0 0 0 0 0 0 0 0 0 0 0 0 0 0 0 0 0 0 0 0 0 0 2 7 8 0 74 264 232 31 119 170 84 963 427 189 184 168 130 240 164 158 202 544 674 903 1078 1398 1282 1286 1436 1577
0 0 0 0 0 0 0 0 0 0 0 0 0 0 0 0 0 0 0 0 0 0 0 0 0 0 0 0 0 0 0 0 0 0 0 0 0 0 0 0 0 0 0 0 0 0 0 0 0 0 0 0 0 0 0 0 134 10 9 58 14 6 2 76 190 247 131 82 105 227 122 36 96 84 83 242 316 222 355 615 670 834 1030 1386 1216 1194 1318 1416
0 0 0 0 0 0 0 0 0 0 0 0 0 0 0 0 0 0 0 0 0 0 0 0 0 0 0 0 0 0 0 0 0 0 0 0 0 0 0 0 0 0 0 0 0 0 0 0 0 0 0 0 0 0 6 0 2 34 44 171 56 12 31 97 228 132 123 146 270 45 48 46 52 73 32 178 312 230 408 580 683 896 1130 1340 1259 1250 1286 1378
0 0 0 0 0 0 0 0 0 0 0 0 0 0 0 0 0 0 0 0 0 0 0 0 0 0 0 0 0 0 0 0 0 0 0 0 0 0 0 0 0 0 0 0 0 0 0 0 0 0 0 0 0 0 14 28 0 14 625 18 84 138 5 11 64 49 210 80 342 80 14 4 18 30 3 30 62 360 466 499 726 1046 1122 1258 1232 1313 1354 1397
0 0 0 0 0 0 0 0 0 0 0 0 0 0 0 0 0 0 0 0 0 0 0 0 0 0 0 0 0 0 0 0 0 0 0 0 0 0 0 0 0 0 0 0 0 0 0 0 0 0 0 0 0 0 0 54 59 60 56 63 15 38 196 210 138 173 52 84 172 128 2 210 0 2 0 2 36 263 492 526 638 842 1034 995 1018 1314 1583 1558
0 0 0 0 0 0 0 0 0 0 0 0 0 0 0 0 0 0 0 0 0 0 0 0 0 0 0 0 0 0 0 0 0 0 0 0 0 0 0 0 0 0 0 0 0 0 0 0 0 0 0 0 0 0 0 40 28 63 30 38 26 45 0 2 1 6 24 421 239 330 159 25 18 0 0 6 24 124 120 823 719 738 858 748 897 1132 1715 1862
0 0 0 0 0 0 0 0 0 0 0 0 0 0 0 0 0 0 0 0 0 0 0 0 0 0 0 0 0 0 0 0 0 0 0 0 0 0 0 0 0 0 0 0 0 0 0 0 0 0 0 0 0 0 0 0 22 18 28 195 101 141 67 4 20 1 46 68 130 221 133 74 0 0 44 113 172 211 218 506 704 642 486 851 978 1236 2228 2353
0 0 0 0 0 0 0 0 0 0 0 0 0 0 0 0 0 0 0 0 0 0 0 0 0 0 0 0 0 0 0 0 0 0 0 0 0 0 0 0 0 0 0 0 0 0 0 0 0 0 0 0 0 0 0 0 0 0 8 191 10 284 128 144 4 32 43 41 29 58 88 62 92 44 66 86 214 247 530 622 293 176 694 1142 1506 2077 2856 2789
0 0 0 0 0 0 0 0 0 0 0 0 0 0 0 0 0 0 0 0 0 0 0 0 0 0 0 0 0 0 0 0 0 0 0 0 0 0 0 0 0 0 0 0 0 0 0 0 0 0 0 0 0 0 0 0 0 0 2 0 18 5 10 32 53 265 43 189 64 54 94 366 9 456 539 276 600 262 342 539 1165 626 792 1626 2009 2664 3416 3072
0 0 0 0 0 0 0 0 0 0 0 0 0 0 0 0 0 0 0 0 0 0 0 0 0 0 0 0 0 0 0 0 0 0 0 0 0 0 0 0 0 0 0 0 0 0 0 0 0 0 0 0 0 0 0 0 0 40 38 22 50 48 20 22 0 162 157 120 112 330 221 0 188 763 725 554 134 492 480 388 1159 1425 1806 2064 2659 3682 3859 3564
0 0 0 0 0 0 40 27 5 0 0 0 0 0 0 0 0 0 0 0 0 0 0 0 0 0 0 0 0 0 0 0 0 0 0 0 0 0 0 0 0 0 0 0 0 0 0 0 0 0 0 0 0 0 0 0 0 34 72 28 24 37 27 2 0 38 15 83 50 180 93 348 300 805 73 11 12 829 885 740 821 1495 1691 2342 2996 3746 3996 3909
0 74 13 0 0 0 0 0 1 2 0 0 0 0 0 0 0 0 0 0 0 0 0 0 0 0 0 0 0 0 0 0 0 0 0 0 0 0 0 0 0 0 0 73 98 0 0 0 0 0 0 0 0 0 0 0 0 0 0 0 28 36 22 0 10 68 78 156 172 397 56 249 122 62 1 13 9 79 258 745 1072 1280 1848 2717 3331 3482 3739 3968
0 0 0 135 0 0 4 0 4 3 16 0 2 0 0 0 0 0 0 0 0 0 0 0 0 0 5 0 0 0 0 0 0 1 134 219 137 164 8 0 0 0 710 141 0 0 0 0 0 0 0 0 0 0 0 0 0 0 0 0 0 0 9 0 38 65 144 88 154 416 502 257 238 97 8 17 24 21 299 948 1187 1800 2419 2575 2873 3132 3237 3683
0 0 0 0 0 156 111 78 0 0 0 0 0 0 3 0 0 0 0 0 0 0 6 0 26 3 8 22 36 0 2 59 14 74 187 250 272 113 0 0 0 466 1 0 0 0 0 0 0 0 0 0 0 0 0 0 0 0 0 0 0 0 0 4 116 173 113 41 56 392 560 471 233 81 8 61 72 9 385 1049 1337 1786 2171 2694 2883 2958 3008 3348
0 0 0 0 0 0 0 0 0 0 0 0 0 0 12 0 1 0 0 0 0 1 0 138 13 3 20 29 11 62 354 95 178 402 450 370 406 250 86 3 0 0 0 0 0 0 0 0 0 0 0 0 0 0 0 0 0 0 0 0 0 0 0 0 0 16 142 281 281 174 667 486 194 154 93 304 544 311 838 1075 1280 1514 2048 2492 2583 2647 2676 3062
0 0 0 0 0 0 0 0 0 0 0 167 28 86 0 0 0 0 0 0 20 4 0 0 0 0 44 40 10 202 41 108 283 596 291 155 329 478 278 340 248 144 0 0 0 0 0 0 0 0 0 0 0 0 0 0 0 0 0 0 0 0 0 0 0 0 0 102 158 119 16 121 228 298 645 1015 889 980 1574 1242 1033 1442 1822 2166 2433 2558 3043 2856
0 0 0 0 0 0 0 0 0 0 0 0 0 0 0 0 0 0 0 0 0 0 0 0 0 0 42 112 43 20 0 0 2 59 78 77 416 225 452 372 231 429 580 427 64 10 0 124 83 0 0 0 0 0 0 0 0 0 0 0 0 0 6 32 0 0 0 70 237 41 109 245 340 643 1671 2327 1528 1043 1109 1613 1550 1335 1407 2048 2554 3158 2945 3099
0 0 0 0 0 0 0 0 0 0 0 0 0 0 0 0 0 0 0 0 0 0 0 0 0 1 139 190 42 0 0 0 0 9 92 83 112 108 128 104 88 258 466 650 278 96 0 3 18 8 0 0 0 0 0 0 0 0 0 0 0 0 0 0 0 2 14 42 188 62 276 274 1607 1208 656 934 696 1534 1222 907 1602 1422 1599 2009 2481 2212 2469 2289
Wind_Speed
nan nan nan nan nan nan nan nan nan nan nan nan nan nan nan nan nan nan nan nan nan nan nan nan nan nan nan nan nan nan nan nan nan nan nan nan nan nan nan nan 23 23 28 26 24 23 21 20 19 19 16 15 12 13 12 13 8 9 10 8 5 6 8 22 19 20 22 18 17 13 11 10 9 12 13 10 11 5 11 10 23 23 23 23 24 20 17 14
nan nan nan nan nan nan nan nan nan nan nan nan nan nan nan nan nan nan nan nan nan nan nan nan nan nan nan nan nan nan nan nan nan nan nan nan nan nan nan nan 25 27 30 25 27 25 23 21 20 20 16 14 12 11 13 12 11 10 7 6 3 8 12 14 16 14 15 17 18 16 12 10 13 13 13 9 11 10 9 14 21 20 21 22 20 19 15 13
nan nan nan nan nan nan nan nan nan nan nan nan nan nan nan nan nan nan nan nan nan nan nan nan nan nan nan nan nan nan nan nan nan nan nan nan nan nan nan 25 23 27 26 25 25 24 24 24 22 20 16 12 14 13 16 13 14 13 9 7 6 11 4 6 9 11 12 15 12 13 12 12 16 12 16 9 11 11 6 14 18 16 16 18 18 15 14 10
nan nan nan nan nan nan nan nan nan nan nan nan nan nan nan nan nan nan nan nan nan nan nan nan nan nan nan nan nan nan nan nan nan nan nan nan nan nan nan 23 23 25 20 19 20 18 14 19 21 19 15 13 15 14 14 15 14 14 14 9 5 5 3 7 8 9 11 9 9 12 16 13 16 17 14 13 13 9 11 18 17 14 16 17 17 15 12 11
nan nan nan nan nan nan nan nan nan nan nan nan nan nan nan nan nan nan nan nan nan nan nan nan nan nan nan nan nan nan nan nan nan nan nan nan nan nan 21 21 24 23 18 18 18 14 16 20 20 15 14 14 14 15 14 16 15 12 14 8 6 4 2 8 7 9 10 10 10 11 13 13 21 18 11 12 11 11 15 21 21 19 18 17 16 13 12 10
nan nan nan nan nan nan nan nan nan nan nan nan nan nan nan nan nan nan nan nan nan nan nan nan nan nan nan nan nan nan nan nan nan 14 9 nan nan nan 22 18 24 19 16 19 17 17 18 18 18 15 14 13 13 13 13 13 20 14 17 15 10 7 2 9 5 8 7 9 7 11 12 18 15 16 14 13 15 17 19 24 23 20 18 18 17 13 11 9
nan nan nan nan nan nan nan nan nan nan nan nan nan nan nan nan nan nan nan nan nan nan nan nan nan nan nan nan nan nan nan nan nan 16 11 15 nan 19 21 21 20 16 16 19 18 18 17 19 17 13 11 11 10 11 12 15 19 17 12 9 10 10 6 7 6 5 9 12 13 13 15 13 16 16 13 16 20 16 21 26 23 21 19 18 15 13 13 10
nan nan nan nan nan nan nan nan nan nan nan nan nan nan nan nan nan nan nan nan nan nan nan nan nan nan nan nan nan nan nan nan nan 17 13 nan nan 19 20 19 17 14 17 19 20 18 18 18 16 12 11 7 8 11 12 16 22 20 16 16 13 10 10 7 7 12 14 16 15 14 11 15 12 15 15 22 20 16 24 26 22 22 20 18 15 14 13 9
nan nan nan nan nan nan nan nan nan nan nan nan nan nan nan nan nan nan nan nan nan nan nan nan nan nan nan nan nan nan nan nan nan nan 17 nan nan 22 21 15 14 14 15 14 17 15 15 14 13 12 5 9 10 11 12 8 15 20 13 12 16 12 10 7 8 10 15 15 14 17 17 10 16 18 19 19 22 24 25 25 21 21 19 17 16 13 11 9
nan nan nan nan nan nan nan nan nan nan nan nan nan nan nan nan nan nan nan nan nan nan nan nan nan nan nan nan nan nan nan nan nan nan nan nan 21 20 17 12 14 14 14 14 14 14 13 10 10 11 5 8 9 8 7 16 8 11 13 15 16 15 12 8 9 9 11 15 15 16 16 17 13 13 20 16 14 23 25 22 21 20 17 17 16 14 12 10
nan nan nan nan nan nan nan nan nan nan nan nan nan nan nan nan nan nan nan nan nan nan nan nan nan nan nan nan nan nan nan nan nan nan nan 18 21 17 14 11 11 11 10 12 12 12 8 4 7 7 7 6 7 8 10 10 9 12 11 16 19 18 15 8 9 12 8 14 16 14 17 13 11 14 15 12 17 24 24 23 21 20 18 17 15 14 14 13
nan nan nan nan nan nan nan nan nan nan nan nan nan nan nan nan nan nan nan nan nan nan nan nan nan nan nan nan nan nan nan nan nan nan nan 17 14 13 7 7 8 7 7 9 9 9 5 4 7 7 4 3 7 4 12 6 10 10 14 13 19 17 15 11 9 11 11 10 10 nan 15 13 15 21 13 16 25 26 25 24 22 19 19 16 15 15 15 nan
nan nan nan nan nan nan nan nan nan nan nan nan nan nan nan nan nan nan nan nan nan nan nan nan nan nan nan nan nan nan nan nan nan nan 15 12 12 7 7 6 5 3 3 4 6 7 4 4 4 5 4 4 2 4 2 9 9 11 14 10 14 15 9 10 8 8 9 7 8 16 nan nan 24 25 20 24 28 25 25 25 22 21 18 18 17 17 15 15
nan nan nan nan nan nan nan nan nan nan nan nan nan nan nan nan nan nan nan nan nan nan nan nan nan nan nan nan nan nan nan nan nan nan 16 12 13 9 8 8 3 2 4 2 1 3 3 4 1 3 2 5 3 3 10 10 13 10 9 11 6 11 9 9 7 9 6 5 16 29 26 23 27 27 25 25 25 24 25 23 22 20 19 19 18 17 16 15
nan nan nan nan nan nan nan nan nan nan nan nan nan nan nan nan nan nan nan nan nan nan nan nan nan nan nan nan nan nan nan 17 18 nan 15 14 13 13 10 9 6 3 3 3 4 2 1 2 3 4 3 5 5 7 8 9 12 11 11 9 9 5 12 10 7 5 3 7 24 36 29 28 29 25 24 23 23 24 25 22 20 19 19 17 17 17 15 14
nan nan nan nan nan nan nan nan nan nan nan nan nan nan nan nan nan nan nan nan nan nan nan nan nan nan nan nan 23 nan nan 17 17 17 14 12 13 12 13 10 9 6 4 6 7 5 1 1 4 3 3 4 9 6 6 10 13 12 6 nan 4 2 10 8 4 3 6 14 24 32 31 28 28 26 25 24 23 24 24 23 19 18 17 16 16 16 14 13
nan nan nan nan nan nan nan nan nan nan nan nan nan nan nan nan nan nan nan nan nan nan nan nan nan nan nan nan nan 17 nan nan 22 17 14 11 10 14 13 12 7 6 5 9 5 4 2 3 1 4 6 3 2 2 4 6 nan 6 3 1 2 2 3 5 2 5 8 19 24 24 29 31 32 26 28 27 23 23 24 22 20 18 18 17 16 14 13 13
nan nan nan nan nan nan nan nan nan nan nan nan nan nan nan nan nan nan nan nan nan nan nan nan nan nan nan nan nan nan nan nan 18 20 15 15 12 15 12 10 7 6 6 7 5 1 6 1 2 3 1 5 4 2 4 6 5 5 4 3 2 4 2 5 3 4 6 15 21 18 22 26 27 27 25 26 25 25 25 23 20 18 17 16 14 13 11 11
nan nan nan nan nan nan nan nan nan nan nan nan nan nan nan nan nan nan nan nan nan nan nan nan nan nan nan nan nan nan nan nan 24 21 19 17 17 14 11 11 6 6 4 4 8 1 7 4 3 3 1 4 2 1 3 7 8 7 7 5 6 6 4 nan 5 5 5 6 14 13 16 19 21 24 23 23 25 24 24 23 21 19 17 15 13 12 12 11
nan nan nan nan nan nan nan nan nan nan nan nan nan nan nan nan nan nan nan nan nan nan nan nan nan nan nan nan nan nan nan nan 26 20 22 20 20 16 12 9 7 2 5 6 11 1 3 3 3 1 6 8 7 4 5 7 8 8 6 7 7 7 3 4 5 5 7 7 11 10 12 16 15 17 20 20 22 22 21 19 18 17 15 13 12 11 11 10
nan nan nan nan nan nan nan nan nan nan nan nan nan nan nan nan nan nan nan nan nan nan nan nan nan nan nan nan nan nan nan nan nan nan nan nan 21 18 15 8 7 4 6 nan nan 9 3 5 4 4 3 4 5 4 6 8 9 8 7 7 6 3 nan 4 3 7 6 7 11 11 11 13 15 15 17 18 18 18 18 17 15 14 13 13 11 11 11 11
nan nan nan nan nan nan nan nan nan nan nan nan nan nan nan nan nan nan nan nan nan nan nan nan nan nan nan nan nan nan nan nan nan nan nan nan nan nan nan nan 6 5 9 6 nan 7 6 7 7 6 8 8 6 7 8 9 10 8 7 7 6 nan nan 4 2 2 3 8 13 10 10 11 11 12 14 15 16 17 16 17 16 14 12 12 12 11 10 9
nan nan nan nan nan nan nan nan nan nan nan nan nan nan nan nan nan nan nan nan nan nan nan nan nan nan nan nan nan nan nan nan nan nan nan nan nan nan nan nan 7 nan nan 5 nan 9 10 9 10 12 8 8 9 7 9 11 8 6 8 nan nan nan nan nan 3 2 3 2 9 10 12 11 9 8 9 12 14 16 16 16 16 14 12 11 11 10 9 6
nan nan nan nan nan nan nan nan nan nan nan nan nan nan nan nan nan nan nan nan nan nan nan nan nan nan nan nan nan nan nan nan nan nan nan nan nan nan nan nan nan nan nan nan 6 12 13 18 16 15 13 11 12 11 10 11 13 12 11 13 nan nan nan 11 5 3 5 8 8 8 10 15 12 10 9 9 11 12 14 15 15 14 12 11 10 8 8 6
nan nan nan nan nan nan nan nan nan nan nan nan nan nan nan nan nan nan nan nan nan nan nan nan nan nan nan nan nan nan nan nan nan nan nan nan nan nan nan nan nan nan 8 8 9 13 14 11 7 8 11 12 13 12 12 14 11 13 14 nan nan nan nan 9 5 3 5 5 9 8 4 8 6 9 11 9 8 8 10 11 11 11 11 10 6 4 6 7
nan nan nan nan nan nan nan nan nan nan nan nan nan nan nan nan nan nan nan nan nan nan nan nan nan nan nan nan nan nan nan nan nan nan nan nan nan nan nan nan nan nan nan 13 12 15 17 13 8 12 12 15 16 14 16 18 13 nan nan nan nan nan nan 10 7 10 10 9 1 6 11 nan 1 3 10 8 4 3 5 4 6 8 9 7 5 4 4 4
nan nan nan nan nan nan nan nan nan nan nan nan nan nan nan nan nan nan nan nan nan nan nan nan nan nan nan nan nan nan nan nan nan nan nan nan nan nan nan nan nan nan nan 18 17 13 13 9 9 10 12 12 15 13 17 11 14 nan nan nan nan nan 17 9 9 12 13 8 4 7 7 9 7 3 3 1 3 4 2 1 3 4 4 3 3 2 2 3
nan nan nan nan nan nan nan nan nan nan nan nan nan nan nan nan nan nan nan nan nan nan nan nan nan nan nan nan nan nan nan nan nan nan nan nan nan nan nan nan nan nan nan 19 14 nan 21 18 12 11 10 12 14 20 23 15 nan nan nan nan 22 22 18 12 10 12 13 14 9 6 6 10 6 9 7 5 3 3 3 2 2 2 2 2 2 3 1 3
nan nan nan nan nan nan nan nan nan nan nan nan nan nan nan nan nan nan nan nan nan nan nan nan nan nan nan nan nan nan nan nan nan nan nan nan nan nan nan nan nan nan nan nan nan nan nan nan nan nan nan 16 18 nan nan nan nan 20 nan nan nan 18 15 13 11 12 10 12 11 5 6 13 7 6 6 6 5 4 5 5 4 2 3 3 5 5 4 5
nan nan nan nan nan nan nan nan nan nan nan nan nan nan nan nan nan nan nan nan nan nan nan nan nan nan nan nan nan nan nan nan nan nan nan nan nan nan nan nan nan nan nan nan nan nan nan nan nan nan nan nan nan nan nan nan nan nan nan nan nan 15 15 11 12 14 11 13 9 10 7 15 12 4 4 5 6 7 7 6 7 6 5 7 9 9 9 9
nan nan nan nan nan nan nan nan nan nan nan nan nan nan nan nan nan nan nan nan nan nan nan nan nan nan nan nan nan nan nan nan nan nan nan nan nan nan nan nan nan nan nan nan nan nan nan nan nan nan nan nan nan 16 nan nan nan nan nan nan nan nan 10 8 9 9 12 6 10 10 9 9 13 nan 3 4 7 7 8 4 3 5 6 9 11 13 13 12
nan nan nan nan nan nan nan nan nan nan nan nan nan nan nan nan nan nan nan nan nan nan nan nan nan nan nan nan nan nan nan nan nan nan nan nan nan nan nan nan nan nan nan nan nan nan nan nan nan nan nan nan nan nan nan nan nan nan nan nan nan nan 14 10 6 8 9 10 11 12 10 9 12 13 9 5 7 7 9 11 8 9 10 10 12 13 13 12
nan nan nan nan nan nan nan nan nan nan nan nan nan nan nan nan nan nan nan nan nan nan nan nan nan nan nan nan nan nan nan nan nan nan nan nan nan nan nan nan nan nan nan nan nan nan nan nan nan nan nan nan nan nan nan nan nan nan nan nan nan nan 14 11 7 9 7 5 10 14 9 14 10 3 7 9 9 12 11 14 13 12 12 11 11 12 11 11
nan nan nan nan nan nan nan nan nan nan nan nan nan nan nan nan nan nan nan nan nan nan nan nan nan nan nan nan nan nan nan nan nan nan nan nan nan nan nan nan nan nan nan nan nan nan nan nan nan nan nan nan nan nan nan nan 16 nan nan nan nan nan nan 14 8 11 16 nan 17 12 13 12 8 8 6 nan 7 11 13 14 14 12 10 9 9 9 9 7
nan nan nan nan nan nan nan nan nan nan nan nan nan nan nan nan nan nan nan nan nan nan nan nan nan nan nan nan nan nan nan nan nan nan nan nan nan nan nan nan nan nan nan nan nan nan nan nan nan nan nan nan nan nan nan nan nan nan nan nan nan nan nan 14 16 nan 21 20 nan 10 15 12 14 11 7 5 7 9 9 8 9 9 6 3 4 4 5 5
nan nan nan nan nan nan nan nan nan nan nan nan nan nan nan nan nan nan nan nan nan nan nan nan nan nan nan nan nan nan nan nan nan nan nan nan nan nan nan nan nan nan nan nan nan nan nan nan nan nan nan nan nan nan nan nan 12 nan nan nan nan nan nan nan 13 11 17 nan 17 19 13 nan nan nan nan 7 5 5 4 3 4 5 3 1 1 3 5 6
nan nan nan nan nan nan nan nan nan nan nan nan nan nan nan nan nan nan nan nan nan nan nan nan nan nan nan nan nan nan nan nan nan nan nan nan nan nan nan nan nan nan nan nan nan nan nan nan nan nan nan nan nan nan nan nan nan nan nan 16 nan nan nan nan 18 19 17 11 12 nan nan nan nan nan nan 7 7 7 4 3 3 4 3 3 1 2 4 6
nan nan nan nan nan nan nan nan nan nan nan nan nan nan nan nan nan nan nan nan nan nan nan nan nan nan nan nan nan nan nan nan nan nan nan nan nan nan nan nan nan nan nan nan nan nan nan nan nan nan nan nan nan nan nan nan nan nan 11 nan nan 12 nan nan nan nan 22 nan 9 nan nan nan nan nan nan nan nan 10 7 4 4 4 4 4 4 3 4 5
nan nan nan nan nan nan nan nan nan nan nan nan nan nan nan nan nan nan nan nan nan nan nan nan nan nan nan nan nan nan nan nan nan nan nan nan nan nan nan nan nan nan nan nan nan nan nan nan nan nan nan nan nan nan nan nan nan nan nan nan nan nan 17 16 18 23 nan nan 13 5 nan 5 nan nan nan nan nan 14 10 5 3 5 4 4 4 4 4 4
nan nan nan nan nan nan nan nan nan nan nan nan nan nan nan nan nan nan nan nan nan nan nan nan nan nan nan nan nan nan nan nan nan nan nan nan nan nan nan nan nan nan nan nan nan nan nan nan nan nan nan nan nan nan nan nan nan nan nan nan nan nan nan nan nan nan nan 13 14 15 8 nan nan nan nan nan nan 11 7 6 6 5 5 4 4 4 6 4
nan nan nan nan nan nan nan nan nan nan nan nan nan nan nan nan nan nan nan nan nan nan nan nan nan nan nan nan nan nan nan nan nan nan nan nan nan nan nan nan nan nan nan nan nan nan nan nan nan nan nan nan nan nan nan nan nan nan nan 13 14 13 nan nan nan nan nan nan 16 16 16 nan nan nan nan 19 17 12 5 4 7 7 3 6 8 7 9 6
nan nan nan nan nan nan nan nan nan nan nan nan nan nan nan nan nan nan nan nan nan nan nan nan nan nan nan nan nan nan nan nan nan nan nan nan nan nan nan nan nan nan nan nan nan nan nan nan nan nan nan nan nan nan nan nan nan nan nan 14 nan 16 7 11 nan nan nan nan nan nan nan nan nan nan nan nan 15 10 8 6 10 9 6 8 10 10 11 8
nan nan nan nan nan nan nan nan nan nan nan nan nan nan nan nan nan nan nan nan nan nan nan nan nan nan nan nan nan nan nan nan nan nan nan nan nan nan nan nan nan nan nan nan nan nan nan nan nan nan nan nan nan nan nan nan nan nan nan nan nan nan nan nan nan 15 nan 12 nan nan nan 15 nan 14 17 16 14 13 9 9 9 5 9 11 10 11 12 10
nan nan nan nan nan nan nan nan nan nan nan nan nan nan nan nan nan nan nan nan nan nan nan nan nan nan nan nan nan nan nan nan nan nan nan nan nan nan nan nan nan nan nan nan nan nan nan nan nan nan nan nan nan nan nan nan nan nan nan nan nan nan nan nan nan 27 20 20 24 22 10 nan 12 17 14 13 18 17 13 10 13 10 12 11 12 13 12 10
nan nan nan nan nan nan nan nan nan nan nan nan nan nan nan nan nan nan nan nan nan nan nan nan nan nan nan nan nan nan nan nan nan nan nan nan nan nan nan nan nan nan nan nan nan nan nan nan nan nan nan nan nan nan nan nan nan nan nan nan nan nan nan nan nan nan nan nan nan 26 nan 17 15 16 nan nan nan 16 15 18 17 15 11 12 11 12 12 11
nan nan nan nan nan nan nan nan nan nan nan nan nan nan nan nan nan nan nan nan nan nan nan nan nan nan nan nan nan nan nan nan nan nan nan nan nan nan nan nan nan nan nan nan nan nan nan nan nan nan nan nan nan nan nan nan nan nan nan nan nan nan nan nan nan nan nan 18 19 16 nan 21 27 nan nan nan nan nan 21 23 19 16 14 13 12 11 10 9
nan nan nan 11 nan nan nan nan nan nan nan nan nan nan nan nan nan nan nan nan nan nan nan nan nan nan nan nan nan nan nan nan nan nan 13 16 18 22 nan nan nan nan 24 21 nan nan nan nan nan nan nan nan nan nan nan nan nan nan nan nan nan nan nan nan nan nan 24 nan 21 24 16 13 17 nan nan nan nan nan 25 27 20 16 15 11 8 9 9 8
nan nan nan nan nan 14 8 nan nan nan nan nan nan nan nan nan nan nan nan nan nan nan nan nan nan nan nan nan nan nan nan nan nan nan 14 18 16 17 nan nan nan 21 nan nan nan nan nan nan nan nan nan nan nan nan nan nan nan nan nan nan nan nan nan nan 14 11 18 nan nan 27 27 17 11 nan nan nan nan nan 29 30 25 17 14 13 9 7 6 6
nan nan nan nan nan nan nan nan nan nan nan nan nan nan nan nan nan nan nan nan nan nan nan 26 nan nan nan nan nan nan 28 nan 18 21 22 23 21 17 nan nan nan nan nan nan nan nan nan nan nan nan nan nan nan nan nan nan nan nan nan nan nan nan nan nan nan nan 10 12 13 17 24 26 20 20 nan 28 29 28 27 28 24 19 15 12 9 7 7 7
nan nan nan nan nan nan nan nan nan nan nan 14 nan nan nan nan nan nan nan nan nan nan nan nan nan nan nan nan nan 27 nan 29 26 22 24 26 19 24 22 24 20 18 nan nan nan nan nan nan nan nan nan nan nan nan nan nan nan nan nan nan nan nan nan nan nan nan nan 9 12 12 nan 26 20 19 22 27 30 27 26 30 28 23 18 14 10 9 9 9
nan nan nan nan nan nan nan nan nan nan nan nan nan nan nan nan nan nan nan nan nan nan nan nan nan nan nan 29 nan nan nan nan nan nan nan nan 20 27 23 22 24 21 17 15 nan nan nan 18 nan nan nan nan nan nan nan nan nan nan nan nan nan nan nan nan nan nan nan nan 8 nan 21 26 24 21 21 25 30 32 31 28 25 21 18 15 11 10 11 11
nan nan nan nan nan nan nan nan nan nan nan nan nan nan nan nan nan nan nan nan nan nan nan nan nan nan 30 30 nan nan nan nan nan nan nan nan 19 19 18 18 nan 21 18 17 16 nan nan nan nan nan nan nan nan nan nan nan nan nan nan nan nan nan nan nan nan nan nan nan 7 nan 18 27 28 23 24 29 35 36 31 28 24 23 22 17 13 12 12 13
Wind_Direction
nan nan nan nan nan nan nan nan nan nan nan nan nan nan nan nan nan nan nan nan nan nan nan nan nan nan nan nan nan nan nan nan nan nan nan nan nan nan nan nan 336 345 336 345 337 344 349 355 355 351 350 2 359 14 1 20 8 336 337 346 331 267 247 234 220 218 218 215 213 212 209 209 219 250 250 257 266 242 284 228 196 191 188 194 215 223 227 227
nan nan nan nan nan nan nan nan nan nan nan nan nan nan nan nan nan nan nan nan nan nan nan nan nan nan nan nan nan nan nan nan nan nan nan nan nan nan nan nan 337 336 345 343 346 349 346 357 353 357 350 6 354 6 359 10 14 19 348 346 292 272 247 231 215 203 212 213 208 202 204 207 219 247 254 274 281 287 292 211 190 197 203 211 219 229 229 230
nan nan nan nan nan nan nan nan nan nan nan nan nan nan nan nan nan nan nan nan nan nan nan nan nan nan nan nan nan nan nan nan nan nan nan nan nan nan nan 330 335 342 355 345 352 351 353 355 349 356 357 358 4 4 18 2 12 12 17 2 326 278 249 216 210 199 207 205 198 202 217 216 234 242 253 258 272 279 259 198 193 193 205 216 223 223 230 230
nan nan nan nan nan nan nan nan nan nan nan nan nan nan nan nan nan nan nan nan nan nan nan nan nan nan nan nan nan nan nan nan nan nan nan nan nan nan nan 331 331 347 350 349 354 0 353 344 348 359 352 12 354 14 11 357 17 344 8 3 287 270 262 261 220 202 200 202 198 203 214 223 244 237 247 247 279 267 207 190 188 191 201 218 220 222 221 224
nan nan nan nan nan nan nan nan nan nan nan nan nan nan nan nan nan nan nan nan nan nan nan nan nan nan nan nan nan nan nan nan nan nan nan nan nan nan 321 332 333 345 350 347 354 1 346 346 350 0 8 5 1 11 24 360 18 2 17 17 6 310 354 249 226 210 200 200 199 212 214 227 241 242 234 264 248 237 206 190 182 189 199 216 218 217 216 223
nan nan nan nan nan nan nan nan nan nan nan nan nan nan nan nan nan nan nan nan nan nan nan nan nan nan nan nan nan nan nan nan nan 244 250 nan nan nan 322 327 340 345 345 347 353 347 348 349 352 0 11 20 3 23 343 12 358 13 359 357 340 337 4 252 221 222 189 202 212 221 232 237 245 246 218 262 221 225 206 192 188 191 196 203 208 212 210 213
nan nan nan nan nan nan nan nan nan nan nan nan nan nan nan nan nan nan nan nan nan nan nan nan nan nan nan nan nan nan nan nan nan 226 269 310 nan 316 318 326 343 343 346 346 351 349 354 349 4 359 12 15 6 22 8 6 4 18 8 359 342 310 331 276 236 248 214 203 216 222 217 241 245 249 212 235 222 228 202 188 192 194 194 200 202 203 208 202
nan nan nan nan nan nan nan nan nan nan nan nan nan nan nan nan nan nan nan nan nan nan nan nan nan nan nan nan nan nan nan nan nan 226 263 nan nan 313 313 325 338 338 350 355 347 356 352 353 5 356 15 17 322 7 343 12 2 5 4 339 344 332 309 310 244 238 229 217 217 218 231 230 238 236 240 233 227 216 197 188 194 195 192 192 191 206 202 193
nan nan nan nan nan nan nan nan nan nan nan nan nan nan nan nan nan nan nan nan nan nan nan nan nan nan nan nan nan nan nan nan nan nan 277 nan nan 313 322 321 341 341 351 353 356 355 356 355 7 18 331 360 336 11 359 5 349 350 2 349 346 347 324 285 277 251 241 230 208 213 215 233 228 237 225 231 212 191 181 182 195 195 189 187 185 203 197 182
nan nan nan nan nan nan nan nan nan nan nan nan nan nan nan nan nan nan nan nan nan nan nan nan nan nan nan nan nan nan nan nan nan nan nan nan 305 313 327 320 338 344 349 353 358 0 10 337 15 356 1 24 358 16 4 4 335 348 360 346 352 342 331 305 260 273 248 236 206 200 197 211 229 212 199 206 200 171 167 180 191 190 186 185 184 190 186 186
nan nan nan nan nan nan nan nan nan nan nan nan nan nan nan nan nan nan nan nan nan nan nan nan nan nan nan nan nan nan nan nan nan nan nan 296 307 320 331 326 346 347 348 345 4 4 1 340 351 339 10 339 16 17 15 340 353 0 354 348 348 345 333 304 287 281 262 248 206 186 188 188 196 185 194 180 169 167 166 184 186 185 183 182 186 184 185 186
nan nan nan nan nan nan nan nan nan nan nan nan nan nan nan nan nan nan nan nan nan nan nan nan nan nan nan nan nan nan nan nan nan nan nan 297 304 316 302 321 340 339 339 343 5 7 344 344 335 3 344 323 11 48 349 349 11 1 352 360 339 352 336 309 286 276 264 249 194 nan 166 182 180 193 186 175 165 169 172 180 179 186 180 182 186 186 187 nan
nan nan nan nan nan nan nan nan nan nan nan nan nan nan nan nan nan nan nan nan nan nan nan nan nan nan nan nan nan nan nan nan nan nan 272 285 282 280 243 296 336 294 327 353 353 352 324 325 359 26 12 38 26 358 335 46 9 5 4 1 357 353 328 312 288 284 269 270 189 173 nan nan 169 176 169 170 169 172 172 173 177 180 178 184 185 184 189 193
nan nan nan nan nan nan nan nan nan nan nan nan nan nan nan nan nan nan nan nan nan nan nan nan nan nan nan nan nan nan nan nan nan nan 283 278 285 264 270 291 292 242 235 61 308 323 356 289 30 65 59 43 5 342 48 35 3 6 332 344 359 351 304 313 311 293 275 238 167 165 164 168 172 166 167 169 169 170 169 171 174 176 181 186 185 186 189 192
nan nan nan nan nan nan nan nan nan nan nan nan nan nan nan nan nan nan nan nan nan nan nan nan nan nan nan nan nan nan nan 246 265 nan 277 285 276 267 282 290 285 269 254 244 264 265 27 27 50 55 24 325 19 37 48 27 1 1 13 339 331 348 311 321 327 327 227 159 166 160 166 165 169 168 162 167 166 167 168 170 169 177 180 185 192 191 187 188
nan nan nan nan nan nan nan nan nan nan nan nan nan nan nan nan nan nan nan nan nan nan nan nan nan nan nan nan 233 nan nan 253 260 271 262 271 268 269 287 287 279 253 252 261 221 244 241 46 61 131 126 28 26 21 59 40 347 347 12 nan 288 293 316 317 326 331 205 179 164 162 166 164 162 163 163 164 163 163 168 168 167 176 180 189 194 194 187 187
nan nan nan nan nan nan nan nan nan nan nan nan nan nan nan nan nan nan nan nan nan nan nan nan nan nan nan nan nan 234 nan nan 254 261 262 256 259 268 284 284 283 274 253 245 245 234 303 37 85 50 11 34 343 85 77 33 nan 292 278 255 273 169 310 339 24 72 171 166 170 166 164 163 169 163 163 158 160 163 166 168 166 177 183 190 196 195 190 187
nan nan nan nan nan nan nan nan nan nan nan nan nan nan nan nan nan nan nan nan nan nan nan nan nan nan nan nan nan nan nan nan 257 256 258 255 246 276 274 266 266 275 259 265 257 188 293 73 317 178 263 7 9 62 94 229 207 214 199 170 171 123 183 296 5 33 126 161 163 170 158 163 166 162 160 158 160 164 166 172 169 178 184 193 191 191 194 189
nan nan nan nan nan nan nan nan nan nan nan nan nan nan nan nan nan nan nan nan nan nan nan nan nan nan nan nan nan nan nan nan 250 259 262 263 261 270 262 238 265 280 258 226 264 16 279 163 236 191 50 351 3 12 144 176 180 175 167 161 130 149 176 nan 295 359 51 146 156 153 156 155 164 164 163 161 162 168 173 176 177 176 186 191 185 189 191 192
nan nan nan nan nan nan nan nan nan nan nan nan nan nan nan nan nan nan nan nan nan nan nan nan nan nan nan nan nan nan nan nan 248 249 257 254 263 271 268 250 259 193 214 212 254 104 229 183 208 226 234 164 222 193 158 157 168 163 142 148 194 162 239 232 306 357 43 129 142 147 143 154 167 165 167 166 167 171 175 180 181 178 184 188 180 188 190 192
nan nan nan nan nan nan nan nan nan nan nan nan nan nan nan nan nan nan nan nan nan nan nan nan nan nan nan nan nan nan nan nan nan nan nan nan 257 270 263 264 260 207 207 nan nan 227 155 170 178 134 143 151 191 174 147 149 172 170 163 158 199 172 nan 183 235 342 24 92 145 148 153 155 171 177 173 170 169 168 174 180 182 182 183 187 181 190 194 192
nan nan nan nan nan nan nan nan nan nan nan nan nan nan nan nan nan nan nan nan nan nan nan nan nan nan nan nan nan nan nan nan nan nan nan nan nan nan nan nan 263 211 240 221 nan 178 167 184 192 172 195 184 167 155 148 163 180 177 176 174 157 nan nan 247 245 344 21 81 130 143 141 156 168 177 174 170 167 172 177 180 181 186 188 188 188 190 199 187
nan nan nan nan nan nan nan nan nan nan nan nan nan nan nan nan nan nan nan nan nan nan nan nan nan nan nan nan nan nan nan nan nan nan nan nan nan nan nan nan 243 nan nan 247 nan 181 176 209 197 186 185 156 150 161 164 183 198 205 201 nan nan nan nan nan 262 98 32 61 118 112 124 148 162 165 162 173 176 178 178 181 182 186 184 184 190 193 192 184
nan nan nan nan nan nan nan nan nan nan nan nan nan nan nan nan nan nan nan nan nan nan nan nan nan nan nan nan nan nan nan nan nan nan nan nan nan nan nan nan nan nan nan nan 172 177 192 226 224 218 213 190 188 200 189 207 218 220 199 197 nan nan nan 173 179 95 74 66 123 122 140 141 140 147 157 173 178 177 176 177 178 182 184 187 194 183 172 177
nan nan nan nan nan nan nan nan nan nan nan nan nan nan nan nan nan nan nan nan nan nan nan nan nan nan nan nan nan nan nan nan nan nan nan nan nan nan nan nan nan nan 178 210 189 177 181 200 225 192 171 170 169 179 201 206 212 211 221 nan nan nan nan 193 185 111 98 90 88 90 100 109 120 123 134 171 182 173 184 174 175 182 189 200 192 177 172 165
nan nan nan nan nan nan nan nan nan nan nan nan nan nan nan nan nan nan nan nan nan nan nan nan nan nan nan nan nan nan nan nan nan nan nan nan nan nan nan nan nan nan nan 200 192 192 196 210 190 170 165 162 167 178 210 212 190 nan nan nan nan nan nan 180 158 119 138 156 161 84 128 nan 275 160 131 152 168 174 202 174 178 191 191 198 187 193 180 155
nan nan nan nan nan nan nan nan nan nan nan nan nan nan nan nan nan nan nan nan nan nan nan nan nan nan nan nan nan nan nan nan nan nan nan nan nan nan nan nan nan nan nan 205 202 194 213 194 182 185 168 159 168 184 235 216 187 nan nan nan nan nan 170 177 149 138 150 147 128 94 104 139 165 247 321 104 179 175 173 161 180 202 197 191 182 174 188 151
nan nan nan nan nan nan nan nan nan nan nan nan nan nan nan nan nan nan nan nan nan nan nan nan nan nan nan nan nan nan nan nan nan nan nan nan nan nan nan nan nan nan nan 203 180 nan 225 219 200 190 178 173 180 196 206 199 nan nan nan nan 187 180 173 166 148 146 152 140 110 77 84 120 132 237 241 263 225 181 136 156 179 176 193 163 109 103 115 122
nan nan nan nan nan nan nan nan nan nan nan nan nan nan nan nan nan nan nan nan nan nan nan nan nan nan nan nan nan nan nan nan nan nan nan nan nan nan nan nan nan nan nan nan nan nan nan nan nan nan nan 192 200 nan nan nan nan 229 nan nan nan 176 160 157 148 146 139 124 130 121 95 123 148 260 239 236 196 180 165 180 163 147 160 148 119 110 124 135
nan nan nan nan nan nan nan nan nan nan nan nan nan nan nan nan nan nan nan nan nan nan nan nan nan nan nan nan nan nan nan nan nan nan nan nan nan nan nan nan nan nan nan nan nan nan nan nan nan nan nan nan nan nan nan nan nan nan nan nan nan 163 164 162 158 147 134 115 148 160 117 120 138 221 235 234 208 179 194 205 157 144 146 132 123 119 132 130
nan nan nan nan nan nan nan nan nan nan nan nan nan nan nan nan nan nan nan nan nan nan nan nan nan nan nan nan nan nan nan nan nan nan nan nan nan nan nan nan nan nan nan nan nan nan nan nan nan nan nan nan nan 178 nan nan nan nan nan nan nan nan 166 155 157 143 123 163 168 152 134 101 117 nan 177 185 211 188 186 187 133 124 119 124 125 126 122 122
nan nan nan nan nan nan nan nan nan nan nan nan nan nan nan nan nan nan nan nan nan nan nan nan nan nan nan nan nan nan nan nan nan nan nan nan nan nan nan nan nan nan nan nan nan nan nan nan nan nan nan nan nan nan nan nan nan nan nan nan nan nan 173 160 156 129 142 176 173 147 131 109 101 125 155 124 132 163 163 165 142 122 116 115 119 118 126 127
nan nan nan nan nan nan nan nan nan nan nan nan nan nan nan nan nan nan nan nan nan nan nan nan nan nan nan nan nan nan nan nan nan nan nan nan nan nan nan nan nan nan nan nan nan nan nan nan nan nan nan nan nan nan nan nan nan nan nan nan nan nan 168 160 170 174 158 199 165 159 158 121 126 174 153 142 132 128 136 142 144 123 119 121 124 126 128 124
nan nan nan nan nan nan nan nan nan nan nan nan nan nan nan nan nan nan nan nan nan nan nan nan nan nan nan nan nan nan nan nan nan nan nan nan nan nan nan nan nan nan nan nan nan nan nan nan nan nan nan nan nan nan nan nan 226 nan nan nan nan nan nan 155 186 185 180 nan 165 173 133 161 145 213 162 nan 152 144 133 130 146 144 132 134 131 126 118 115
nan nan nan nan nan nan nan nan nan nan nan nan nan nan nan nan nan nan nan nan nan nan nan nan nan nan nan nan nan nan nan nan nan nan nan nan nan nan nan nan nan nan nan nan nan nan nan nan nan nan nan nan nan nan nan nan nan nan nan nan nan nan nan 148 183 nan 164 161 nan 163 151 159 154 174 141 145 137 134 139 136 146 157 151 134 121 90 94 97
nan nan nan nan nan nan nan nan nan nan nan nan nan nan nan nan nan nan nan nan nan nan nan nan nan nan nan nan nan nan nan nan nan nan nan nan nan nan nan nan nan nan nan nan nan nan nan nan nan nan nan nan nan nan nan nan 208 nan nan nan nan nan nan nan 151 166 154 nan 157 165 140 nan nan nan nan 198 184 190 185 179 153 172 176 271 51 20 38 48
nan nan nan nan nan nan nan nan nan nan nan nan nan nan nan nan nan nan nan nan nan nan nan nan nan nan nan nan nan nan nan nan nan nan nan nan nan nan nan nan nan nan nan nan nan nan nan nan nan nan nan nan nan nan nan nan nan nan nan 222 nan nan nan nan 167 172 150 156 155 nan nan nan nan nan nan 200 215 211 216 238 217 226 246 291 302 344 16 30
nan nan nan nan nan nan nan nan nan nan nan nan nan nan nan nan nan nan nan nan nan nan nan nan nan nan nan nan nan nan nan nan nan nan nan nan nan nan nan nan nan nan nan nan nan nan nan nan nan nan nan nan nan nan nan nan nan nan 219 nan nan 235 nan nan nan nan 163 nan 165 nan nan nan nan nan nan nan nan 223 195 225 250 253 274 293 302 329 347 6
nan nan nan nan nan nan nan nan nan nan nan nan nan nan nan nan nan nan nan nan nan nan nan nan nan nan nan nan nan nan nan nan nan nan nan nan nan nan nan nan nan nan nan nan nan nan nan nan nan nan nan nan nan nan nan nan nan nan nan nan nan nan 224 198 178 175 nan nan 141 192 nan 183 nan nan nan nan nan 232 203 184 216 263 267 275 295 312 312 315
nan nan nan nan nan nan nan nan nan nan nan nan nan nan nan nan nan nan nan nan nan nan nan nan nan nan nan nan nan nan nan nan nan nan nan nan nan nan nan nan nan nan nan nan nan nan nan nan nan nan nan nan nan nan nan nan nan nan nan nan nan nan nan nan nan nan nan 149 136 160 132 nan nan nan nan nan nan 228 244 157 197 229 247 243 260 271 266 275
nan nan nan nan nan nan nan nan nan nan nan nan nan nan nan nan nan nan nan nan nan nan nan nan nan nan nan nan nan nan nan nan nan nan nan nan nan nan nan nan nan nan nan nan nan nan nan nan nan nan nan nan nan nan nan nan nan nan nan 218 233 220 nan nan nan nan nan nan 175 155 149 nan nan nan nan 168 164 184 220 230 212 192 225 230 229 245 250 243
nan nan nan nan nan nan nan nan nan nan nan nan nan nan nan nan nan nan nan nan nan nan nan nan nan nan nan nan nan nan nan nan nan nan nan nan nan nan nan nan nan nan nan nan nan nan nan nan nan nan nan nan nan nan nan nan nan nan nan 213 nan 243 192 194 nan nan nan nan nan nan nan nan nan nan nan nan 165 172 172 212 242 156 178 220 222 238 241 244
nan nan nan nan nan nan nan nan nan nan nan nan nan nan nan nan nan nan nan nan nan nan nan nan nan nan nan nan nan nan nan nan nan nan nan nan nan nan nan nan nan nan nan nan nan nan nan nan nan nan nan nan nan nan nan nan nan nan nan nan nan nan nan nan nan 202 nan 176 nan nan nan 214 nan 177 199 190 173 182 174 202 234 195 178 208 215 230 234 239
nan nan nan nan nan nan nan nan nan nan nan nan nan nan nan nan nan nan nan nan nan nan nan nan nan nan nan nan nan nan nan nan nan nan nan nan nan nan nan nan nan nan nan nan nan nan nan nan nan nan nan nan nan nan nan nan nan nan nan nan nan nan nan nan nan 209 195 170 156 165 171 nan 194 183 191 203 197 196 177 187 192 203 195 201 216 222 224 238
nan nan nan nan nan nan nan nan nan nan nan nan nan nan nan nan nan nan nan nan nan nan nan nan nan nan nan nan nan nan nan nan nan nan nan nan nan nan nan nan nan nan nan nan nan nan nan nan nan nan nan nan nan nan nan nan nan nan nan nan nan nan nan nan nan nan nan nan nan 174 nan 181 206 161 nan nan nan 203 189 181 188 184 192 205 217 226 234 243
nan nan nan nan nan nan nan nan nan nan nan nan nan nan nan nan nan nan nan nan nan nan nan nan nan nan nan nan nan nan nan nan nan nan nan nan nan nan nan nan nan nan nan nan nan nan nan nan nan nan nan nan nan nan nan nan nan nan nan nan nan nan nan nan nan nan nan 196 174 167 nan 165 177 nan nan nan nan nan 190 189 187 187 199 210 224 226 233 241
nan nan nan 258 nan nan nan nan nan nan nan nan nan nan nan nan nan nan nan nan nan nan nan nan nan nan nan nan nan nan nan nan nan nan 222 208 222 222 nan nan nan nan 241 241 nan nan nan nan nan nan nan nan nan nan nan nan nan nan nan nan nan nan nan nan nan nan 210 nan 169 163 153 172 160 nan nan nan nan nan 190 187 192 192 201 203 216 227 231 229
nan nan nan nan nan 250 257 nan nan nan nan nan nan nan nan nan nan nan nan nan nan nan nan nan nan nan nan nan nan nan nan nan nan nan 228 219 221 243 nan nan nan 250 nan nan nan nan nan nan nan nan nan nan nan nan nan nan nan nan nan nan nan nan nan nan 239 231 249 nan nan 168 158 147 165 nan nan nan nan nan 197 193 186 191 193 200 209 222 231 235
nan nan nan nan nan nan nan nan nan nan nan nan nan nan nan nan nan nan nan nan nan nan nan 221 nan nan nan nan nan nan 215 nan 233 223 212 214 214 228 nan nan nan nan nan nan nan nan nan nan nan nan nan nan nan nan nan nan nan nan nan nan nan nan nan nan nan nan 270 261 224 180 168 149 165 175 nan 193 187 193 202 198 197 185 190 195 200 214 241 255
nan nan nan nan nan nan nan nan nan nan nan 252 nan nan nan nan nan nan nan nan nan nan nan nan nan nan nan nan nan 216 nan 215 206 205 213 202 222 220 224 216 227 242 nan nan nan nan nan nan nan nan nan nan nan nan nan nan nan nan nan nan nan nan nan nan nan nan nan 269 251 197 nan 150 165 185 199 194 187 196 204 203 203 200 193 191 197 225 245 260
nan nan nan nan nan nan nan nan nan nan nan nan nan nan nan nan nan nan nan nan nan nan nan nan nan nan nan 224 nan nan nan nan nan nan nan nan 210 222 214 231 206 224 237 241 nan nan nan 224 nan nan nan nan nan nan nan nan nan nan nan nan nan nan nan nan nan nan nan nan 304 nan 188 169 174 204 208 200 193 195 203 205 206 204 205 201 197 225 251 261
nan nan nan nan nan nan nan nan nan nan nan nan nan nan nan nan nan nan nan nan nan nan nan nan nan nan 221 225 nan nan nan nan nan nan nan nan 206 207 211 199 nan 203 215 238 241 nan nan nan nan nan nan nan nan nan nan nan nan nan nan nan nan nan nan nan nan nan nan nan 300 nan 208 175 177 196 208 211 197 196 200 196 203 217 224 226 220 218 235 251